Tracking 34305 objects as of 6-Jun-2026
HD Live streaming from Space Station
objects crossing your sky now

RADUGA 20

Track RADUGA 20 now!
RADUGA 20 is classified as:


NORAD ID: 17611
Int'l Code: 1987-028A
Perigee: 36,932.7 km
Apogee: 37,161.4 km
Inclination: 13.3 °
Period: 1,500.6 minutes
Semi major axis: 43418 km
RCS: 2.0634 m2 (large)
Launch date: March 19, 1987
Source: Commonwealth of Independent States (former USSR) (CIS)
Launch site: TYURATAM MISSILE AND SPACE COMPLEX (TTMTR)
Your satellite tracking list
Your tracking list is empty




NASA's NSSDC Master Catalog

Two Line Element Set (TLE):
1 17611U 87028A   26156.70802530 -.00000129  00000-0  00000-0 0  9999
2 17611  13.3164 328.4620 0026341 171.9224  20.4023  0.95961673138204
Source of the keplerian elements: AFSPC